Location: Dittelbrunn
(50.0738°N, 10.2196°E)
Time: 13:25:58
(UTC+00:00)

DMSP B5D2-2 - Pass Details

Date: 18 September 2020
Orbit: 790 x 806 km, 98.3° (Epoch: 25 October)

Event Time Altitude Azimuth Distance (km) Brightness Sun altitude
Rises 18:38:29 0° 19° (NNE) 3,334 7.3 -12.4°
Reaches altitude 10° 18:40:59 10° 27° (NNE) 2,399 6.5 -12.7°
Maximum altitude 18:45:59 41° 97° (E) 1,160 4.5 -13.5°
Drops below altitude 10° 18:50:56 10° 167° (SSE) 2,380 6.2 -14.3°
Sets 18:53:23 0° 175° (S) 3,305 7.0 -14.6°
